Location: Newark
(21.1200°N, 73.4000°E)
Time: 06:18:03
(UTC+00:00)

Explorer 11/Cluster Stage 4 - Pass Details

Date: 24 January 2020
Orbit: 467 x 1259 km, 28.8° (Epoch: 17 February)

Event Time Altitude Azimuth Distance (km) Brightness Sun altitude
Rises 06:45:15 0° 225° (SW) 4,029 10.5 48.8°
Reaches altitude 10° 06:48:11 10° 218° (SW) 3,137 10.2 48.9°
Maximum altitude 06:55:39 42° 150° (SSE) 1,715 10.2 49.2°
Drops below altitude 10° 07:03:13 10° 83° (E) 3,184 9.8 49.4°
Sets 07:06:12 0° 76° (ENE) 4,096 10.2 49.5°
